UAL849 PGUM-RJTT

Flight info

Callsign UAL849
Flight time 3h 25m
Altitude 32000
Route RICHH A597 ASEDA/N0473F340 A597 BUBDO/N0468F350 Y527 BILLY Y21 AKSEL
Aircraft B738/M-SDE2E3FGHIRWXY/LB1

Departure

Time 2026-04-21 01:11
Airport Antonio B. Won Pat International Airport (PGUM)

Arrival

Time 2026-04-21 04:36
Airport Tokyo Haneda International Airport (RJTT)
Time Latitude Longitude Altitude Speed Heading
2026-04-21 00:37 13.49451 144.80861 297 ft 0 kts 154°
2026-04-21 01:00 13.49465 144.80855 296 ft 4 kts 174°
2026-04-21 01:01 13.49486 144.80851 296 ft 4 kts 158°
2026-04-21 01:01 13.49503 144.80837 299 ft 4 kts 99°
2026-04-21 01:01 13.49500 144.80813 295 ft 3 kts 63°
2026-04-21 01:01 13.49499 144.80811 295 ft 1 kts 63°
2026-04-21 01:04 13.49505 144.80822 295 ft 5 kts 63°
2026-04-21 01:04 13.49531 144.80873 298 ft 11 kts 62°
2026-04-21 01:04 13.49537 144.80953 301 ft 13 kts 132°
2026-04-21 01:04 13.49450 144.81009 303 ft 16 kts 150°
2026-04-21 01:05 13.49342 144.81043 306 ft 18 kts 204°
2026-04-21 01:05 13.49267 144.80924 301 ft 23 kts 242°
2026-04-21 01:05 13.49181 144.80760 295 ft 29 kts 242°
2026-04-21 01:05 13.49077 144.80561 290 ft 34 kts 241°
2026-04-21 01:06 13.48940 144.80368 285 ft 32 kts 228°
2026-04-21 01:06 13.48815 144.80149 280 ft 38 kts 245°
2026-04-21 01:06 13.48706 144.79909 276 ft 37 kts 244°
2026-04-21 01:06 13.48596 144.79670 268 ft 36 kts 245°
2026-04-21 01:07 13.48491 144.79441 260 ft 35 kts 245°
2026-04-21 01:07 13.48389 144.79220 257 ft 33 kts 244°
2026-04-21 01:07 13.48294 144.79011 257 ft 31 kts 245°
2026-04-21 01:07 13.48206 144.78819 253 ft 29 kts 244°
2026-04-21 01:08 13.48123 144.78637 250 ft 27 kts 244°
2026-04-21 01:08 13.48045 144.78465 243 ft 26 kts 244°
2026-04-21 01:08 13.47971 144.78304 239 ft 24 kts 244°
2026-04-21 01:08 13.47905 144.78161 237 ft 9 kts 243°
2026-04-21 01:09 13.47876 144.78134 234 ft 0 kts 201°
2026-04-21 01:09 13.47876 144.78133 238 ft 0 kts 201°
2026-04-21 01:09 13.47851 144.78132 237 ft 7 kts 174°
2026-04-21 01:10 13.47801 144.78153 238 ft 9 kts 139°
2026-04-21 01:10 13.47804 144.78203 235 ft 0 kts 65°
2026-04-21 01:10 13.47887 144.78386 240 ft 65 kts 64°
2026-04-21 01:10 13.48181 144.79028 256 ft 131 kts 65°
2026-04-21 01:11 13.48652 144.80045 393 ft 176 kts 64°
2026-04-21 01:11 13.49198 144.81242 1067 ft 194 kts 64°
2026-04-21 01:11 13.50016 144.82304 1899 ft 198 kts 34°
2026-04-21 01:11 13.51398 144.82740 2148 ft 224 kts
2026-04-21 01:12 13.52963 144.82374 2508 ft 239 kts 338°
2026-04-21 01:12 13.54458 144.81585 3071 ft 243 kts 334°
2026-04-21 01:12 13.55971 144.80761 3513 ft 252 kts 334°
2026-04-21 01:12 13.57577 144.79881 3830 ft 269 kts 334°
2026-04-21 01:13 13.59232 144.78947 4569 ft 271 kts 333°
2026-04-21 01:13 13.60913 144.78036 5290 ft 275 kts 333°
2026-04-21 01:13 13.62618 144.77112 5991 ft 279 kts 333°
2026-04-21 01:13 13.64349 144.76180 6622 ft 284 kts 333°
2026-04-21 01:14 13.66107 144.75234 7262 ft 287 kts 333°
2026-04-21 01:14 13.67890 144.74276 7976 ft 290 kts 333°
2026-04-21 01:14 13.69683 144.73313 8696 ft 293 kts 332°
2026-04-21 01:14 13.71505 144.72333 9311 ft 298 kts 332°
2026-04-21 01:15 13.73356 144.71339 9991 ft 301 kts 332°
2026-04-21 01:15 13.75227 144.70335 10560 ft 309 kts 332°
2026-04-21 01:15 13.77200 144.69274 10656 ft 331 kts 332°
2026-04-21 01:15 13.79299 144.68144 10816 ft 350 kts 332°
2026-04-21 01:16 13.81485 144.66968 10951 ft 367 kts 332°
2026-04-21 01:16 13.83801 144.65725 11074 ft 384 kts 332°
2026-04-21 01:16 13.86213 144.64428 11219 ft 398 kts 332°
2026-04-21 01:16 13.88683 144.63101 11597 ft 403 kts 332°
2026-04-21 01:17 13.91173 144.61763 12145 ft 404 kts 332°
2026-04-21 01:17 13.93664 144.60423 12671 ft 405 kts 332°
2026-04-21 01:17 13.96170 144.59075 13099 ft 408 kts 332°
2026-04-21 01:17 13.98699 144.57716 13497 ft 412 kts 332°
2026-04-21 01:18 14.01244 144.56348 13952 ft 413 kts 331°
2026-04-21 01:18 14.03796 144.54975 14422 ft 415 kts 331°
2026-04-21 01:18 14.06357 144.53597 14841 ft 416 kts 332°
2026-04-21 01:18 14.08933 144.52208 15244 ft 419 kts 332°
2026-04-21 01:19 14.11522 144.50812 15642 ft 421 kts 332°
2026-04-21 01:19 14.14125 144.49410 16056 ft 422 kts 332°
2026-04-21 01:19 14.16732 144.48004 16436 ft 424 kts 332°
2026-04-21 01:19 14.19357 144.46590 16765 ft 427 kts 332°
2026-04-21 01:20 14.21996 144.45167 17123 ft 429 kts 332°
2026-04-21 01:20 14.24641 144.43741 17518 ft 430 kts 332°
2026-04-21 01:20 14.27292 144.42311 17888 ft 431 kts 332°
2026-04-21 01:20 14.29957 144.40874 18178 ft 434 kts 332°
2026-04-21 01:21 14.32642 144.39424 18457 ft 439 kts 332°
2026-04-21 01:21 14.35364 144.37954 18961 ft 442 kts 332°
2026-04-21 01:21 14.38079 144.36487 19644 ft 440 kts 332°
2026-04-21 01:21 14.40797 144.35019 20104 ft 444 kts 332°
2026-04-21 01:22 14.43550 144.33530 20407 ft 450 kts 332°
2026-04-21 01:22 14.46328 144.32027 20826 ft 452 kts 332°
2026-04-21 01:22 14.49117 144.30520 21307 ft 453 kts 332°
2026-04-21 01:22 14.51915 144.29007 21710 ft 455 kts 332°
2026-04-21 01:23 14.54731 144.27484 22033 ft 459 kts 332°
2026-04-21 01:23 14.57564 144.25951 22371 ft 461 kts 332°
2026-04-21 01:23 14.60374 144.24429 22736 ft 463 kts 332°
2026-04-21 01:23 14.63233 144.22881 23087 ft 465 kts 332°
2026-04-21 01:24 14.66104 144.21326 23402 ft 468 kts 332°
2026-04-21 01:24 14.68990 144.19762 23714 ft 470 kts 332°
2026-04-21 01:24 14.71888 144.18192 24022 ft 471 kts 332°
2026-04-21 01:24 14.74801 144.16613 24293 ft 474 kts 332°
2026-04-21 01:25 14.77762 144.15007 24567 ft 476 kts 332°
2026-04-21 01:25 14.80699 144.13414 24829 ft 478 kts 332°
2026-04-21 01:25 14.83598 144.11841 25327 ft 472 kts 332°
2026-04-21 01:25 14.86450 144.10293 26437 ft 453 kts 332°
2026-04-21 01:26 14.89193 144.08804 27440 ft 439 kts 332°
2026-04-21 01:26 14.91881 144.07344 27977 ft 435 kts 332°
2026-04-21 01:26 14.94565 144.05886 28266 ft 437 kts 332°
2026-04-21 01:26 14.97260 144.04422 28488 ft 439 kts 332°
2026-04-21 01:27 14.99969 144.02949 28714 ft 441 kts 332°
2026-04-21 01:27 15.02686 144.01472 29004 ft 441 kts 332°
2026-04-21 01:27 15.05399 143.99996 29393 ft 439 kts 332°
2026-04-21 01:27 15.08092 143.98530 29788 ft 437 kts 332°
2026-04-21 01:28 15.10782 143.97066 30100 ft 436 kts 332°
2026-04-21 01:28 15.13468 143.95603 30381 ft 437 kts 332°
2026-04-21 01:28 15.16152 143.94142 30688 ft 435 kts 332°
2026-04-21 01:28 15.18825 143.92686 31048 ft 433 kts 332°
2026-04-21 01:29 15.21477 143.91241 31408 ft 430 kts 332°
2026-04-21 01:29 15.24116 143.89802 31748 ft 428 kts 332°
2026-04-21 01:29 15.26745 143.88369 32026 ft 427 kts 332°
2026-04-21 01:29 15.29391 143.86926 31955 ft 435 kts 332°
2026-04-21 01:30 15.34793 143.83979 32007 ft 444 kts 332°
2026-04-21 01:30 15.40322 143.80960 32017 ft 454 kts 331°
2026-04-21 01:31 15.45961 143.77879 32010 ft 461 kts 331°
2026-04-21 01:31 15.50701 143.75289 32019 ft 465 kts 331°
2026-04-21 01:32 15.56450 143.72145 32013 ft 468 kts 331°
2026-04-21 01:32 15.62229 143.68983 31998 ft 470 kts 331°
2026-04-21 01:33 15.68021 143.65812 31990 ft 471 kts 331°
2026-04-21 01:33 15.73818 143.62639 32000 ft 471 kts 331°
2026-04-21 01:34 15.79613 143.59460 32007 ft 470 kts 331°
2026-04-21 01:34 15.85396 143.56285 31997 ft 470 kts 331°
2026-04-21 01:35 15.91175 143.53114 32004 ft 469 kts 331°
2026-04-21 01:35 15.96947 143.49944 32005 ft 469 kts 331°
2026-04-21 01:36 16.02718 143.46771 31994 ft 469 kts 331°
2026-04-21 01:36 16.08475 143.43604 32010 ft 468 kts 331°
2026-04-21 01:37 16.14228 143.40438 31986 ft 468 kts 331°
2026-04-21 01:37 16.19976 143.37273 32010 ft 467 kts 330°
2026-04-21 01:38 16.25717 143.34107 31983 ft 467 kts 330°
2026-04-21 01:38 16.31451 143.30944 32007 ft 466 kts 330°
2026-04-21 01:39 16.37181 143.27782 31990 ft 466 kts 330°
2026-04-21 01:39 16.42900 143.24626 32009 ft 465 kts 330°
2026-04-21 01:40 16.48619 143.21465 31989 ft 465 kts 330°
2026-04-21 01:40 16.54330 143.18305 32010 ft 464 kts 330°
2026-04-21 01:41 16.60038 143.15147 31986 ft 465 kts 330°
2026-04-21 01:41 16.65697 143.12010 32007 ft 463 kts 330°
2026-04-21 01:42 16.71393 143.08856 31987 ft 463 kts 330°
2026-04-21 01:42 16.77084 143.05705 31998 ft 463 kts 330°
2026-04-21 01:43 16.82770 143.02548 32001 ft 463 kts 330°
2026-04-21 01:43 16.88453 142.99391 32003 ft 463 kts 330°
2026-04-21 01:44 16.94142 142.96229 31993 ft 463 kts 330°
2026-04-21 01:44 16.99828 142.93067 32011 ft 463 kts 330°
2026-04-21 01:45 17.05516 142.89901 31990 ft 463 kts 330°
2026-04-21 01:45 17.11205 142.86733 32003 ft 463 kts 330°
2026-04-21 01:46 17.16889 142.83566 32001 ft 463 kts 330°
2026-04-21 01:46 17.22567 142.80387 31998 ft 463 kts 329°
2026-04-21 01:47 17.28220 142.77167 32008 ft 462 kts 329°
2026-04-21 01:47 17.33869 142.73938 31985 ft 463 kts 329°
2026-04-21 01:48 17.39517 142.70713 31995 ft 462 kts 329°
2026-04-21 01:48 17.45165 142.67490 32011 ft 462 kts 329°
2026-04-21 01:49 17.50806 142.64270 31991 ft 462 kts 329°
2026-04-21 01:49 17.56444 142.61049 32006 ft 461 kts 329°
2026-04-21 01:50 17.62077 142.57829 31994 ft 461 kts 329°
2026-04-21 01:50 17.67696 142.54613 32011 ft 460 kts 329°
2026-04-21 01:51 17.73316 142.51395 31997 ft 460 kts 329°
2026-04-21 01:51 17.78932 142.48176 32011 ft 460 kts 329°
2026-04-21 01:52 17.87366 142.43339 31998 ft 460 kts 329°
2026-04-21 01:53 17.92941 142.40139 31999 ft 460 kts 329°
2026-04-21 01:53 17.98549 142.36916 32013 ft 459 kts 329°
2026-04-21 01:54 18.04149 142.33696 31994 ft 459 kts 329°
2026-04-21 01:54 18.09749 142.30474 32011 ft 459 kts 329°
2026-04-21 01:55 18.15355 142.27249 31999 ft 459 kts 329°
2026-04-21 01:55 18.20956 142.24021 32004 ft 459 kts 329°
2026-04-21 01:56 18.26559 142.20791 32005 ft 459 kts 329°
2026-04-21 01:56 18.32161 142.17556 31999 ft 459 kts 329°
2026-04-21 01:57 18.37763 142.14320 31993 ft 459 kts 329°
2026-04-21 01:57 18.43365 142.11081 31998 ft 459 kts 329°
2026-04-21 01:58 18.48967 142.07843 31978 ft 459 kts 329°
2026-04-21 01:58 18.54570 142.04601 31987 ft 459 kts 329°
2026-04-21 01:59 18.60167 142.01359 31985 ft 459 kts 329°
2026-04-21 01:59 18.65761 141.98117 31978 ft 459 kts 329°
2026-04-21 02:00 18.71313 141.94896 31986 ft 458 kts 329°
2026-04-21 02:00 18.76897 141.91654 31979 ft 458 kts 329°
2026-04-21 02:01 18.82476 141.88413 31983 ft 458 kts 328°
2026-04-21 02:01 18.88050 141.85172 31985 ft 457 kts 328°
2026-04-21 02:02 18.93621 141.81932 31979 ft 457 kts 328°
2026-04-21 02:02 18.99187 141.78691 31988 ft 456 kts 328°
2026-04-21 02:03 19.04745 141.75451 31977 ft 456 kts 328°
2026-04-21 02:03 19.10304 141.72208 31985 ft 456 kts 328°
2026-04-21 02:04 19.15855 141.68969 31980 ft 456 kts 328°
2026-04-21 02:04 19.21408 141.65730 31979 ft 456 kts 328°
2026-04-21 02:05 19.26956 141.62484 31985 ft 455 kts 328°
2026-04-21 02:05 19.32503 141.59238 31978 ft 456 kts 328°
2026-04-21 02:06 19.38047 141.55993 31990 ft 455 kts 328°
2026-04-21 02:06 19.43582 141.52749 31974 ft 455 kts 328°
2026-04-21 02:07 19.49121 141.49502 31983 ft 455 kts 328°
2026-04-21 02:07 19.54646 141.46256 31984 ft 454 kts 328°
2026-04-21 02:08 19.60178 141.43008 31981 ft 454 kts 328°
2026-04-21 02:08 19.65710 141.39759 31987 ft 455 kts 328°
2026-04-21 02:09 19.71248 141.36502 31978 ft 455 kts 328°
2026-04-21 02:09 19.76786 141.33240 31990 ft 455 kts 328°
2026-04-21 02:10 19.82321 141.29981 31988 ft 455 kts 328°
2026-04-21 02:10 19.87867 141.26709 32001 ft 455 kts 328°
2026-04-21 02:11 19.93407 141.23439 31981 ft 455 kts 328°
2026-04-21 02:11 19.98902 141.20193 32006 ft 455 kts 328°
2026-04-21 02:12 20.04433 141.16923 31985 ft 454 kts 328°
2026-04-21 02:12 20.09987 141.13638 31998 ft 453 kts 328°
2026-04-21 02:13 20.15463 141.10396 31980 ft 454 kts 328°
2026-04-21 02:13 20.20972 141.07133 31992 ft 453 kts 328°
2026-04-21 02:14 20.26474 141.03869 31978 ft 453 kts 328°
2026-04-21 02:14 20.31974 141.00604 31973 ft 453 kts 328°
2026-04-21 02:15 20.37468 140.97341 31991 ft 452 kts 328°
2026-04-21 02:15 20.42965 140.94073 31986 ft 452 kts 328°
2026-04-21 02:16 20.48454 140.90808 31975 ft 452 kts 328°
2026-04-21 02:16 20.53941 140.87542 31986 ft 451 kts 328°
2026-04-21 02:17 20.59418 140.84276 31983 ft 451 kts 328°
2026-04-21 02:17 20.64901 140.81005 31979 ft 451 kts 328°
2026-04-21 02:18 20.70382 140.77733 31986 ft 451 kts 328°
2026-04-21 02:18 20.74940 140.75010 31975 ft 452 kts 328°
2026-04-21 02:19 20.80417 140.71735 31984 ft 451 kts 328°
2026-04-21 02:19 20.85897 140.68455 31980 ft 452 kts 328°
2026-04-21 02:20 20.91377 140.65170 31987 ft 451 kts 328°
2026-04-21 02:20 20.96856 140.61887 31980 ft 451 kts 328°
2026-04-21 02:21 21.02513 140.58951 31926 ft 456 kts 338°
2026-04-21 02:21 21.05530 140.57946 32116 ft 453 kts 339°
2026-04-21 02:21 21.08550 140.56942 31966 ft 456 kts 339°
2026-04-21 02:22 21.14589 140.54892 31960 ft 456 kts 338°
2026-04-21 02:22 21.20609 140.52801 31965 ft 455 kts 338°
2026-04-21 02:23 21.26620 140.50696 31970 ft 455 kts 338°
2026-04-21 02:23 21.32630 140.48587 31971 ft 455 kts 338°
2026-04-21 02:24 21.38637 140.46478 31979 ft 454 kts 338°
2026-04-21 02:24 21.44640 140.44369 31989 ft 453 kts 338°
2026-04-21 02:25 21.50850 140.42188 31971 ft 452 kts 341°
2026-04-21 02:25 21.56762 140.40106 32012 ft 452 kts 338°
2026-04-21 02:26 21.62762 140.37990 31998 ft 454 kts 338°
2026-04-21 02:26 21.68765 140.35877 32000 ft 453 kts 338°
2026-04-21 02:27 21.74765 140.33763 31997 ft 453 kts 338°
2026-04-21 02:27 21.80762 140.31646 31987 ft 453 kts 338°
2026-04-21 02:28 21.86751 140.29528 31976 ft 453 kts 338°
2026-04-21 02:28 21.92734 140.27413 31971 ft 453 kts 338°
2026-04-21 02:29 21.98713 140.25296 31984 ft 452 kts 338°
2026-04-21 02:29 22.04690 140.23178 31990 ft 452 kts 338°
2026-04-21 02:30 22.10667 140.21058 31976 ft 452 kts 338°
2026-04-21 02:30 22.16638 140.18940 31983 ft 451 kts 338°
2026-04-21 02:31 22.22601 140.16822 31984 ft 451 kts 338°
2026-04-21 02:31 22.28557 140.14702 31974 ft 451 kts 338°
2026-04-21 02:32 22.34514 140.12583 31986 ft 451 kts 338°
2026-04-21 02:32 22.40474 140.10460 31975 ft 451 kts 338°
2026-04-21 02:33 22.46435 140.08335 31988 ft 451 kts 338°
2026-04-21 02:33 22.52398 140.06207 31979 ft 451 kts 338°
2026-04-21 02:34 22.58366 140.04076 31985 ft 451 kts 338°
2026-04-21 02:34 22.64328 140.01945 31978 ft 452 kts 338°
2026-04-21 02:35 22.70298 139.99808 31986 ft 452 kts 338°
2026-04-21 02:35 22.76269 139.97669 31980 ft 452 kts 338°
2026-04-21 02:36 22.82247 139.95528 31986 ft 452 kts 339°
2026-04-21 02:36 22.88219 139.93382 31979 ft 453 kts 339°
2026-04-21 02:37 22.94202 139.91233 31981 ft 453 kts 339°
2026-04-21 02:37 23.00192 139.89080 31989 ft 454 kts 339°
2026-04-21 02:38 23.06194 139.86921 31975 ft 454 kts 339°
2026-04-21 02:38 23.12216 139.84752 32147 ft 457 kts 339°
2026-04-21 02:38 23.15222 139.83670 32486 ft 453 kts 339°
2026-04-21 02:39 23.18203 139.82595 32817 ft 450 kts 339°
2026-04-21 02:39 23.21168 139.81523 33076 ft 449 kts 338°
2026-04-21 02:39 23.24135 139.80454 33242 ft 450 kts 338°
2026-04-21 02:39 23.27111 139.79381 33377 ft 451 kts 338°
2026-04-21 02:40 23.30092 139.78304 33585 ft 451 kts 338°
2026-04-21 02:40 23.33067 139.77229 33878 ft 449 kts 338°
2026-04-21 02:40 23.36022 139.76161 34018 ft 449 kts 338°
2026-04-21 02:41 23.41963 139.74008 34012 ft 449 kts 338°
2026-04-21 02:41 23.47848 139.71877 34004 ft 447 kts 338°
2026-04-21 02:42 23.53756 139.69735 33997 ft 447 kts 338°
2026-04-21 02:42 23.59662 139.67593 33990 ft 447 kts 338°
2026-04-21 02:43 23.65561 139.65449 33990 ft 446 kts 338°
2026-04-21 02:43 23.71457 139.63306 33982 ft 446 kts 338°
2026-04-21 02:44 23.77355 139.61157 33974 ft 448 kts 338°
2026-04-21 02:44 23.83264 139.59006 33989 ft 447 kts 338°
2026-04-21 02:45 23.89177 139.56849 33975 ft 449 kts 338°
2026-04-21 02:45 23.95106 139.54683 33989 ft 449 kts 338°
2026-04-21 02:46 24.01042 139.52515 33978 ft 450 kts 338°
2026-04-21 02:46 24.06989 139.50342 33983 ft 450 kts 338°
2026-04-21 02:47 24.12933 139.48167 33984 ft 450 kts 338°
2026-04-21 02:47 24.18834 139.46004 33976 ft 450 kts 338°
2026-04-21 02:48 24.24767 139.43828 33988 ft 449 kts 338°
2026-04-21 02:48 24.30696 139.41647 33977 ft 450 kts 338°
2026-04-21 02:49 24.36628 139.39471 33988 ft 449 kts 338°
2026-04-21 02:49 24.42553 139.37293 33986 ft 449 kts 338°
2026-04-21 02:50 24.48475 139.35111 33990 ft 449 kts 338°
2026-04-21 02:50 24.54394 139.32929 33979 ft 448 kts 338°
2026-04-21 02:51 24.60307 139.30748 33970 ft 448 kts 338°
2026-04-21 02:51 24.66214 139.28569 33983 ft 447 kts 338°
2026-04-21 02:52 24.72113 139.26386 33966 ft 447 kts 338°
2026-04-21 02:52 24.78015 139.24203 33981 ft 447 kts 338°
2026-04-21 02:53 24.83912 139.22018 33968 ft 447 kts 337°
2026-04-21 02:53 24.89805 139.19830 33971 ft 447 kts 337°
2026-04-21 02:54 24.95685 139.17649 33976 ft 446 kts 337°
2026-04-21 02:54 25.01562 139.15465 33973 ft 446 kts 337°
2026-04-21 02:55 25.07442 139.13300 33973 ft 445 kts 338°
2026-04-21 02:55 25.13324 139.11149 33984 ft 445 kts 338°
2026-04-21 02:56 25.19152 139.09012 33992 ft 444 kts 337°
2026-04-21 02:56 25.27953 139.05775 33991 ft 444 kts 337°
2026-04-21 02:57 25.33821 139.03614 33992 ft 444 kts 337°
2026-04-21 02:57 25.39688 139.01451 33991 ft 444 kts 337°
2026-04-21 02:58 25.45554 138.99282 33990 ft 445 kts 337°
2026-04-21 02:58 25.51424 138.97114 33991 ft 445 kts 337°
2026-04-21 02:59 25.57293 138.94940 33991 ft 445 kts 337°
2026-04-21 02:59 25.63167 138.92767 33992 ft 445 kts 337°
2026-04-21 03:00 25.69036 138.90592 33993 ft 445 kts 337°
2026-04-21 03:00 25.74903 138.88416 33985 ft 444 kts 337°
2026-04-21 03:01 25.80764 138.86239 33993 ft 444 kts 337°
2026-04-21 03:01 25.86623 138.84059 33991 ft 444 kts 337°
2026-04-21 03:02 25.92483 138.81878 33988 ft 444 kts 337°
2026-04-21 03:02 25.98339 138.79697 33991 ft 444 kts 337°
2026-04-21 03:03 26.04192 138.77511 33993 ft 444 kts 336°
2026-04-21 03:03 26.10041 138.75327 33994 ft 443 kts 336°
2026-04-21 03:04 26.15878 138.73147 33991 ft 442 kts 336°
2026-04-21 03:04 26.20726 138.71332 33992 ft 442 kts 336°
2026-04-21 03:05 26.27499 138.68793 33979 ft 441 kts 336°
2026-04-21 03:05 26.33319 138.66610 33968 ft 442 kts 336°
2026-04-21 03:06 26.38194 138.64781 33989 ft 441 kts 336°
2026-04-21 03:06 26.44014 138.62595 33970 ft 441 kts 336°
2026-04-21 03:07 26.49790 138.60422 33979 ft 441 kts 336°
2026-04-21 03:07 26.55613 138.58229 33972 ft 442 kts 336°
2026-04-21 03:08 26.61435 138.56036 33982 ft 441 kts 336°
2026-04-21 03:08 26.67257 138.53838 33972 ft 442 kts 336°
2026-04-21 03:09 26.73087 138.51636 33980 ft 442 kts 336°
2026-04-21 03:09 26.78912 138.49432 33973 ft 442 kts 336°
2026-04-21 03:10 26.84742 138.47224 33974 ft 442 kts 336°
2026-04-21 03:10 26.90568 138.45017 33973 ft 442 kts 336°
2026-04-21 03:11 26.96389 138.42807 33971 ft 441 kts 336°
2026-04-21 03:11 27.02205 138.40596 33978 ft 441 kts 336°
2026-04-21 03:12 27.08015 138.38387 33966 ft 441 kts 336°
2026-04-21 03:12 27.13838 138.36171 33954 ft 444 kts 335°
2026-04-21 03:13 27.19737 138.33918 33963 ft 452 kts 336°
2026-04-21 03:13 27.25718 138.31638 33975 ft 454 kts 335°
2026-04-21 03:14 27.31711 138.29350 33959 ft 455 kts 335°
2026-04-21 03:14 27.37703 138.27062 33974 ft 455 kts 335°
2026-04-21 03:15 27.43698 138.24767 33951 ft 455 kts 335°
2026-04-21 03:15 27.49684 138.22472 33967 ft 454 kts 335°
2026-04-21 03:16 27.55657 138.20181 33961 ft 453 kts 335°
2026-04-21 03:16 27.61584 138.17902 33960 ft 453 kts 335°
2026-04-21 03:17 27.67546 138.15609 33959 ft 453 kts 335°
2026-04-21 03:17 27.73513 138.13312 33946 ft 453 kts 335°
2026-04-21 03:18 27.79472 138.11017 33958 ft 452 kts 335°
2026-04-21 03:18 27.85429 138.08716 33943 ft 452 kts 335°
2026-04-21 03:19 27.91380 138.06417 33955 ft 452 kts 335°
2026-04-21 03:19 27.97327 138.04116 33946 ft 452 kts 335°
2026-04-21 03:20 28.03271 138.01814 33960 ft 451 kts 335°
2026-04-21 03:20 28.09210 137.99512 33955 ft 451 kts 335°
2026-04-21 03:21 28.15159 137.97201 33958 ft 452 kts 335°
2026-04-21 03:21 28.21104 137.94891 33955 ft 452 kts 335°
2026-04-21 03:22 28.27055 137.92576 33955 ft 452 kts 335°
2026-04-21 03:22 28.33008 137.90257 33954 ft 452 kts 335°
2026-04-21 03:23 28.38954 137.87937 33957 ft 452 kts 335°
2026-04-21 03:23 28.44899 137.85616 33952 ft 452 kts 335°
2026-04-21 03:24 28.50831 137.83298 33964 ft 451 kts 335°
2026-04-21 03:24 28.56760 137.80977 33952 ft 450 kts 335°
2026-04-21 03:25 28.62677 137.78658 33956 ft 449 kts 335°
2026-04-21 03:25 28.68583 137.76340 33951 ft 449 kts 335°
2026-04-21 03:26 28.74492 137.74019 33954 ft 449 kts 334°
2026-04-21 03:26 28.80348 137.71716 33958 ft 448 kts 334°
2026-04-21 03:27 28.86278 137.69380 33947 ft 447 kts 334°
2026-04-21 03:27 28.92116 137.67076 33955 ft 447 kts 334°
2026-04-21 03:28 28.98023 137.64747 33953 ft 446 kts 334°
2026-04-21 03:28 29.03843 137.62448 33957 ft 445 kts 334°
2026-04-21 03:29 29.09690 137.60134 33955 ft 444 kts 334°
2026-04-21 03:29 29.15530 137.57820 33949 ft 444 kts 334°
2026-04-21 03:30 29.21366 137.55504 33964 ft 444 kts 334°
2026-04-21 03:30 29.27198 137.53189 33947 ft 443 kts 334°
2026-04-21 03:31 29.33025 137.50872 33948 ft 443 kts 334°
2026-04-21 03:31 29.38837 137.48559 33934 ft 442 kts 334°
2026-04-21 03:32 29.44644 137.46244 33953 ft 441 kts 333°
2026-04-21 03:32 29.50458 137.43923 33993 ft 445 kts 333°
2026-04-21 03:33 29.53381 137.42755 34218 ft 444 kts 333°
2026-04-21 03:33 29.56292 137.41594 34519 ft 441 kts 333°
2026-04-21 03:33 29.59182 137.40439 34809 ft 439 kts 333°
2026-04-21 03:33 29.62062 137.39287 34977 ft 439 kts 333°
2026-04-21 03:34 29.67859 137.36964 34978 ft 440 kts 333°
2026-04-21 03:34 29.73640 137.34647 34972 ft 438 kts 333°
2026-04-21 03:35 29.79390 137.32339 34967 ft 436 kts 333°
2026-04-21 03:35 29.85118 137.30035 34961 ft 435 kts 333°
2026-04-21 03:36 29.90832 137.27734 34942 ft 435 kts 333°
2026-04-21 03:36 29.96543 137.25432 34928 ft 435 kts 333°
2026-04-21 03:37 30.02258 137.23127 34933 ft 436 kts 333°
2026-04-21 03:37 30.07978 137.20821 34940 ft 435 kts 332°
2026-04-21 03:38 30.13698 137.18511 34955 ft 435 kts 332°
2026-04-21 03:38 30.19422 137.16194 34950 ft 436 kts 332°
2026-04-21 03:39 30.25147 137.13875 34933 ft 437 kts 332°
2026-04-21 03:39 30.30874 137.11550 34947 ft 436 kts 332°
2026-04-21 03:40 30.36598 137.09224 34943 ft 436 kts 332°
2026-04-21 03:40 30.42319 137.06898 34943 ft 436 kts 332°
2026-04-21 03:41 30.47966 137.04598 34948 ft 435 kts 332°
2026-04-21 03:41 30.53708 137.02256 34936 ft 435 kts 332°
2026-04-21 03:42 30.59416 136.99925 34954 ft 435 kts 332°
2026-04-21 03:42 30.65120 136.97595 34939 ft 435 kts 332°
2026-04-21 03:43 30.70822 136.95262 34949 ft 434 kts 332°
2026-04-21 03:43 30.76512 136.92930 34952 ft 434 kts 332°
2026-04-21 03:44 30.82198 136.90598 34953 ft 433 kts 332°
2026-04-21 03:44 30.87878 136.88265 34957 ft 433 kts 331°
2026-04-21 03:45 30.93556 136.85930 34953 ft 433 kts 331°
2026-04-21 03:45 30.99230 136.83594 34956 ft 432 kts 331°
2026-04-21 03:46 31.04895 136.81259 34956 ft 431 kts 331°
2026-04-21 03:46 31.10551 136.78923 34949 ft 431 kts 331°
2026-04-21 03:47 31.16197 136.76591 35001 ft 430 kts 331°
2026-04-21 03:47 31.21833 136.74257 35006 ft 429 kts 331°
2026-04-21 03:48 31.27457 136.71924 35001 ft 429 kts 330°
2026-04-21 03:48 31.33044 136.69605 34979 ft 429 kts 330°
2026-04-21 03:49 31.38671 136.67275 34980 ft 431 kts 332°
2026-04-21 03:49 31.41647 136.66491 34918 ft 450 kts 345°
2026-04-21 03:49 31.44819 136.66531 35076 ft 462 kts 355°
2026-04-21 03:50 31.48039 136.67274 34901 ft 485 kts
2026-04-21 03:50 31.51197 136.68684 35174 ft 484 kts 11°
2026-04-21 03:50 31.54350 136.70116 34995 ft 488 kts 11°
2026-04-21 03:50 31.57519 136.71537 35038 ft 487 kts 11°
2026-04-21 03:51 31.63886 136.74344 35010 ft 488 kts 10°
2026-04-21 03:51 31.70263 136.77121 34985 ft 489 kts 10°
2026-04-21 03:52 31.76651 136.79897 34979 ft 490 kts 10°
2026-04-21 03:52 31.83043 136.82681 34958 ft 491 kts 10°
2026-04-21 03:53 31.88359 136.85002 34971 ft 490 kts 10°
2026-04-21 03:53 31.94752 136.87798 34953 ft 490 kts 10°
2026-04-21 03:54 32.01129 136.90596 34942 ft 489 kts 10°
2026-04-21 03:54 32.07505 136.93387 34966 ft 489 kts
2026-04-21 03:55 32.13886 136.96185 34950 ft 489 kts
2026-04-21 03:55 32.20264 136.98987 34965 ft 489 kts
2026-04-21 03:56 32.26645 137.01799 34953 ft 490 kts
2026-04-21 03:56 32.33033 137.04620 34950 ft 490 kts
2026-04-21 03:57 32.39424 137.07444 34944 ft 490 kts
2026-04-21 03:57 32.45813 137.10272 34944 ft 490 kts
2026-04-21 03:58 32.52163 137.13082 34945 ft 491 kts 10°
2026-04-21 03:58 32.58550 137.15920 34951 ft 490 kts 10°
2026-04-21 03:59 32.64949 137.18763 34945 ft 492 kts 10°
2026-04-21 04:00 32.74569 137.23047 34930 ft 493 kts 10°
2026-04-21 04:00 32.80989 137.25911 34933 ft 493 kts 10°
2026-04-21 04:01 32.87407 137.28780 34905 ft 494 kts 10°
2026-04-21 04:01 32.93835 137.31656 34917 ft 493 kts 10°
2026-04-21 04:02 33.00264 137.34539 34914 ft 494 kts 10°
2026-04-21 04:02 33.06698 137.37426 34899 ft 494 kts 10°
2026-04-21 04:03 33.13130 137.40320 34924 ft 494 kts 10°
2026-04-21 04:03 33.19574 137.43222 34909 ft 495 kts 10°
2026-04-21 04:04 33.26026 137.46123 34906 ft 496 kts 10°
2026-04-21 04:04 33.32491 137.49032 34906 ft 497 kts 10°
2026-04-21 04:05 33.38963 137.51950 34898 ft 498 kts 10°
2026-04-21 04:05 33.45445 137.54879 34911 ft 498 kts 10°
2026-04-21 04:06 33.51936 137.57820 34898 ft 499 kts 10°
2026-04-21 04:06 33.58340 137.60967 34807 ft 514 kts 21°
2026-04-21 04:06 33.61256 137.63583 34833 ft 532 kts 38°
2026-04-21 04:07 33.63649 137.67013 34913 ft 544 kts 52°
2026-04-21 04:07 33.67254 137.75055 35031 ft 547 kts 58°
2026-04-21 04:07 33.69030 137.79120 34887 ft 551 kts 58°
2026-04-21 04:08 33.70832 137.83175 34951 ft 550 kts 57°
2026-04-21 04:08 33.74500 137.91264 34894 ft 552 kts 57°
2026-04-21 04:09 33.78200 137.99350 34884 ft 553 kts 57°
2026-04-21 04:09 33.81893 138.07459 34898 ft 553 kts 57°
2026-04-21 04:10 33.85578 138.15596 34880 ft 554 kts 57°
2026-04-21 04:10 33.89257 138.23736 34877 ft 554 kts 57°
2026-04-21 04:11 33.92926 138.31884 34836 ft 554 kts 57°
2026-04-21 04:11 33.96555 138.40043 34842 ft 552 kts 57°
2026-04-21 04:12 34.00175 138.48200 34850 ft 551 kts 58°
2026-04-21 04:12 34.03788 138.56349 34839 ft 551 kts 58°
2026-04-21 04:13 34.07403 138.64519 34858 ft 553 kts 58°
2026-04-21 04:13 34.11019 138.72719 34834 ft 554 kts 58°
2026-04-21 04:14 34.14634 138.80929 34385 ft 558 kts 58°
2026-04-21 04:14 34.16477 138.85118 32965 ft 570 kts 59°
2026-04-21 04:14 34.18321 138.89332 32023 ft 567 kts 58°
2026-04-21 04:14 34.20162 138.93533 31361 ft 563 kts 58°
2026-04-21 04:15 34.21982 138.97690 30858 ft 556 kts 58°
2026-04-21 04:15 34.23777 139.01796 30492 ft 548 kts 58°
2026-04-21 04:15 34.25542 139.05836 29854 ft 544 kts 58°
2026-04-21 04:15 34.27328 139.09919 28794 ft 552 kts 59°
2026-04-21 04:16 34.29077 139.14002 28212 ft 545 kts 60°
2026-04-21 04:16 34.30665 139.18228 27089 ft 555 kts 65°
2026-04-21 04:16 34.32110 139.22511 26312 ft 549 kts 66°
2026-04-21 04:16 34.33531 139.26857 25208 ft 556 kts 66°
2026-04-21 04:17 34.34924 139.31117 24238 ft 553 kts 66°
2026-04-21 04:17 34.36354 139.35403 23362 ft 540 kts 65°
2026-04-21 04:17 34.37756 139.39536 22823 ft 525 kts 65°
2026-04-21 04:17 34.39148 139.43596 22109 ft 520 kts 65°
2026-04-21 04:18 34.40534 139.47619 21405 ft 515 kts 65°
2026-04-21 04:18 34.41907 139.51607 20690 ft 511 kts 65°
2026-04-21 04:18 34.43264 139.55565 19968 ft 507 kts 65°
2026-04-21 04:18 34.44605 139.59488 19262 ft 502 kts 65°
2026-04-21 04:19 34.45933 139.63382 18537 ft 498 kts 65°
2026-04-21 04:19 34.47295 139.67205 17820 ft 491 kts 60°
2026-04-21 04:19 34.49096 139.70675 17063 ft 481 kts 46°
2026-04-21 04:19 34.51399 139.73524 16515 ft 466 kts 35°
2026-04-21 04:20 34.53975 139.75819 15780 ft 455 kts 25°
2026-04-21 04:20 34.56709 139.77681 15167 ft 448 kts 24°
2026-04-21 04:20 34.59402 139.79573 14422 ft 447 kts 26°
2026-04-21 04:20 34.62038 139.81508 13812 ft 436 kts 26°
2026-04-21 04:21 34.64623 139.83423 13093 ft 433 kts 26°
2026-04-21 04:21 34.67245 139.85106 12556 ft 421 kts 17°
2026-04-21 04:21 34.70005 139.86118 11878 ft 405 kts
2026-04-21 04:21 34.72727 139.86523 11304 ft 385 kts 359°
2026-04-21 04:22 34.75302 139.86818 11221 ft 359 kts
2026-04-21 04:22 34.77722 139.87156 10987 ft 342 kts
2026-04-21 04:22 34.80043 139.87488 10879 ft 331 kts
2026-04-21 04:22 34.82319 139.87812 10731 ft 327 kts
2026-04-21 04:23 34.84568 139.88130 10598 ft 323 kts
2026-04-21 04:23 34.86784 139.88441 10468 ft 316 kts
2026-04-21 04:23 34.88936 139.88749 10330 ft 307 kts
2026-04-21 04:23 34.91027 139.89046 10187 ft 299 kts
2026-04-21 04:24 34.93076 139.89337 10087 ft 295 kts 360°
2026-04-21 04:24 34.95100 139.89496 9913 ft 287 kts 347°
2026-04-21 04:24 34.97021 139.88949 9668 ft 282 kts 336°
2026-04-21 04:24 34.98896 139.88280 9360 ft 282 kts 338°
2026-04-21 04:25 35.00773 139.87661 9053 ft 276 kts 339°
2026-04-21 04:25 35.02600 139.87067 8777 ft 267 kts 339°
2026-04-21 04:25 35.04362 139.86502 8513 ft 257 kts 339°
2026-04-21 04:25 35.06043 139.85970 8250 ft 244 kts 338°
2026-04-21 04:26 35.07640 139.85459 8003 ft 230 kts 339°
2026-04-21 04:26 35.09148 139.84983 7821 ft 219 kts 338°
2026-04-21 04:26 35.10610 139.84523 7575 ft 215 kts 338°
2026-04-21 04:26 35.12050 139.84063 7345 ft 213 kts 338°
2026-04-21 04:27 35.13486 139.83595 7108 ft 214 kts 338°
2026-04-21 04:27 35.14928 139.83148 6913 ft 214 kts 340°
2026-04-21 04:27 35.16351 139.82727 6674 ft 213 kts 339°
2026-04-21 04:27 35.17786 139.82258 6439 ft 215 kts 339°
2026-04-21 04:28 35.19221 139.81795 6190 ft 211 kts 339°
2026-04-21 04:28 35.20620 139.81348 5961 ft 204 kts 339°
2026-04-21 04:28 35.21975 139.80914 5707 ft 199 kts 339°
2026-04-21 04:28 35.23293 139.80497 5463 ft 192 kts 339°
2026-04-21 04:29 35.24583 139.80084 5221 ft 191 kts 339°
2026-04-21 04:29 35.25868 139.79674 5011 ft 191 kts 340°
2026-04-21 04:29 35.27158 139.79264 4784 ft 192 kts 340°
2026-04-21 04:29 35.28459 139.78849 4557 ft 193 kts 340°
2026-04-21 04:30 35.29763 139.78435 4311 ft 194 kts 341°
2026-04-21 04:30 35.31081 139.78047 4083 ft 195 kts 348°
2026-04-21 04:30 35.32416 139.78340 3769 ft 204 kts 28°
2026-04-21 04:30 35.33477 139.79460 3619 ft 201 kts 33°
2026-04-21 04:31 35.34687 139.80303 3340 ft 197 kts 21°
2026-04-21 04:31 35.35885 139.81136 3088 ft 198 kts 28°
2026-04-21 04:31 35.37043 139.82037 2842 ft 197 kts 28°
2026-04-21 04:31 35.38190 139.82932 2583 ft 194 kts 28°
2026-04-21 04:32 35.39304 139.83798 2333 ft 185 kts 29°
2026-04-21 04:32 35.40370 139.84619 2125 ft 179 kts 29°
2026-04-21 04:32 35.41466 139.85290 1957 ft 174 kts
2026-04-21 04:32 35.42668 139.85229 1935 ft 175 kts 355°
2026-04-21 04:33 35.43899 139.85182 1775 ft 173 kts 356°
2026-04-21 04:33 35.45024 139.84845 1637 ft 166 kts 327°
2026-04-21 04:33 35.45905 139.83932 1588 ft 163 kts 324°
2026-04-21 04:33 35.46891 139.83394 1539 ft 149 kts 342°
2026-04-21 04:34 35.47786 139.82806 1345 ft 146 kts 323°
2026-04-21 04:34 35.48580 139.82093 1242 ft 138 kts 331°
2026-04-21 04:34 35.49423 139.81532 1080 ft 138 kts 334°
2026-04-21 04:34 35.50262 139.80950 883 ft 139 kts 331°
2026-04-21 04:35 35.51081 139.80377 729 ft 137 kts 332°
2026-04-21 04:35 35.51917 139.79786 477 ft 141 kts 332°
2026-04-21 04:35 35.52771 139.79172 289 ft 138 kts 332°
2026-04-21 04:35 35.53574 139.78616 105 ft 130 kts 332°
2026-04-21 04:36 35.54304 139.78104 25 ft 111 kts 333°
2026-04-21 04:36 35.54874 139.77705 24 ft 77 kts 330°
2026-04-21 04:36 35.55181 139.77471 24 ft 18 kts 302°
2026-04-21 04:36 35.55165 139.77358 22 ft 14 kts 239°
2026-04-21 04:37 35.55110 139.77295 22 ft 11 kts 183°
2026-04-21 04:37 35.55043 139.77329 22 ft 10 kts 151°
2026-04-21 04:37 35.54982 139.77372 22 ft 10 kts 150°
2026-04-21 04:37 35.54941 139.77400 22 ft 0 kts 150°
2026-04-21 04:41 35.54927 139.77410 22 ft 5 kts 150°
2026-04-21 04:41 35.54894 139.77416 22 ft 10 kts 201°
2026-04-21 04:41 35.54842 139.77330 22 ft 15 kts 239°
2026-04-21 04:41 35.54790 139.77222 22 ft 14 kts 240°
2026-04-21 04:42 35.54756 139.77146 22 ft 3 kts 239°
2026-04-21 04:42 35.54762 139.77128 22 ft 3 kts 330°
2026-04-21 04:42 35.54782 139.77116 23 ft 3 kts 334°
2026-04-21 04:42 35.54800 139.77103 22 ft 3 kts 333°
2026-04-21 04:43 35.54819 139.77091 22 ft 3 kts 330°
2026-04-21 04:43 35.54832 139.77082 23 ft 0 kts 330°
2026-04-21 04:43 35.54834 139.77080 22 ft 0 kts 330°
2026-04-21 04:43 35.54837 139.77078 22 ft 1 kts 330°
2026-04-21 04:44 35.54838 139.77078 23 ft 0 kts 330°